User: anonymous   Login
Location: Unspecified
(0.0000°N, 0.0000°E)
Time: 23:11:09
(UTC+00:00)
Language:

ELEKTRO-L - Orbit

View from above orbital plane
View from above orbital plane
View from above satellite
View from above satellite

Ground track
Ground track

The orbit data is extracted from the following two-line orbital elements,

1 37344U 11001A   15245.83385215 -.00000126 +00000-0 +00000-0 0  9996
2 37344 001.1258 080.3996 0003904 355.8721 281.6442 01.00270333016959
Epoch (UTC): 02 September 2015 20:00:44
Eccentricity: 0.0003904
inclination: 1.1258°
perigee height: 35770 km
apogee height: 35803 km
right ascension of ascending node: 80.3996°
argument of perigee: 355.8721°
revolutions per day: 1.00270333
mean anomaly at epoch: 281.6442°
orbit number at epoch: 1695

The dashed part of the orbit path shows where the satellite is in the earth's shadow,  

DLR